Retour au catalogue

STARLINK-37451

ActifCommunicationsVLEO
NORAD 69471·PAYLOAD·🇺🇸 United States

Lancé Jun 8, 2026 depuis Cape Canaveral Space Force Station

Loading…

Prochains Passages (prochaines 24 heures)

TLE

FraisSource: CelesTrak SupGP

Époque: Sep 15, 2026, 03:26 UTC

1 69471C 26127AE  26258.14354167 -.00064980  00000+0 -19199-2 0  2586
2 69471  53.1584 190.4040 0001335  89.1133 291.0802 15.34422598    16

Suivez STARLINK-37451 en temps réel avec AllMySat

Download on the App Store